User: anonymous   Login
Location: Nied?wied?
(53.3665°N, 14.8184°E)
Time: 11:59:24
(UTC+00:00)
Language:

Cosmos 1378 - Orbit

View from above orbital plane
View from above orbital plane
View from above satellite
View from above satellite

Ground track
Ground track

The orbit data is extracted from the following two-line orbital elements,

1 13271U 82059A   21138.27815644  .00000963  00000-0  38817-4 0  9999
2 13271  82.4669 216.7119 0006035 340.0451  20.0549 15.23623929127674
Epoch (UTC): 18 May 2021 06:40:32
Eccentricity: 0.0006035
inclination: 82.4669°
perigee height: 491 km
apogee height: 499 km
right ascension of ascending node: 216.7119°
argument of perigee: 340.0451°
revolutions per day: 15.23623929
mean anomaly at epoch: 20.0549°
orbit number at epoch: 12767

The dashed part of the orbit path shows where the satellite is in the earth's shadow,  

DLR